Schneifelwetter: Wetterstation Hallschlag, 537 m . NN
Wetterdaten: Samstag, 26.11.2011
Datum Zeit Temp. A. Feuchte A. Luftdruck Regen Wind Richtung Richtung Sonnenschein Helligkeit T Regen Taupunkt Windchill
26.11.2011 00:01 2,7 C 99 % 1026 hPa 0,0 l/m 14,1 km/h (3 Bft) W45 260 0 min 0 lux 0 min 2,6 C -3,2 C
26.11.2011 00:16 2,8 C 99 % 1026 hPa 0,0 l/m 14,7 km/h (3 Bft) W-SW22.5 255 0 min 0 lux 0 min 2,7 C -3,4 C
26.11.2011 00:31 2,9 C 99 % 1026 hPa 0,0 l/m 18,9 km/h (3 Bft) W22.5 260 0 min 0 lux 0 min 2,8 C -5,4 C
26.11.2011 00:46 3,0 C 99 % 1026 hPa 0,0 l/m 18,8 km/h (3 Bft) W45 260 0 min 0 lux 0 min 2,9 C -5,2 C
26.11.2011 01:01 3,1 C 99 % 1026 hPa 0,0 l/m 15,5 km/h (3 Bft) W22.5 260 0 min 0 lux 0 min 3,0 C -3,5 C
26.11.2011 01:16 3,2 C 99 % 1026 hPa 0,0 l/m 17,9 km/h (3 Bft) W45 270 0 min 0 lux 0 min 3,1 C -4,6 C
26.11.2011 01:30 3,3 C 99 % 1026 hPa 0,0 l/m 23,5 km/h (4 Bft) W45 265 0 min 0 lux 0 min 3,2 C -6,7 C
26.11.2011 01:45 3,4 C 99 % 1026 hPa 0,0 l/m 14,0 km/h (3 Bft) W-SW22.5 255 0 min 0 lux 0 min 3,3 C -2,3 C
26.11.2011 02:00 3,5 C 99 % 1026 hPa 0,0 l/m 21,5 km/h (4 Bft) W45 260 0 min 0 lux 0 min 3,4 C -5,7 C
26.11.2011 02:15 3,6 C 99 % 1026 hPa 0,0 l/m 20,3 km/h (4 Bft) W45 260 0 min 0 lux 0 min 3,5 C -5,1 C
26.11.2011 02:30 3,7 C 99 % 1027 hPa 0,0 l/m 18,2 km/h (3 Bft) W45 265 0 min 0 lux 0 min 3,6 C -4,1 C
26.11.2011 02:45 3,7 C 99 % 1027 hPa 0,0 l/m 17,1 km/h (3 Bft) W22.5 265 0 min 0 lux 0 min 3,6 C -3,6 C
26.11.2011 03:00 3,7 C 99 % 1027 hPa 0,0 l/m 27,5 km/h (4 Bft) W45 270 0 min 0 lux 0 min 3,6 C -7,5 C
26.11.2011 03:15 3,7 C 99 % 1027 hPa 0,0 l/m 21,5 km/h (4 Bft) W22.5 265 0 min 0 lux 0 min 3,6 C -5,5 C
26.11.2011 03:30 3,7 C 99 % 1027 hPa 0,0 l/m 19,0 km/h (3 Bft) W-SW45 250 0 min 0 lux 0 min 3,6 C -4,4 C
26.11.2011 03:45 3,7 C 99 % 1027 hPa 0,0 l/m 16,5 km/h (3 Bft) W22.5 260 0 min 0 lux 0 min 3,6 C -3,3 C
26.11.2011 04:00 3,7 C 99 % 1027 hPa 0,0 l/m 18,4 km/h (3 Bft) W22.5 260 0 min 0 lux 0 min 3,6 C -4,2 C
26.11.2011 04:15 3,5 C 99 % 1027 hPa 0,0 l/m 13,6 km/h (3 Bft) W22.5 260 0 min 0 lux 0 min 3,4 C -2,0 C
26.11.2011 04:30 3,3 C 99 % 1027 hPa 0,0 l/m 18,8 km/h (3 Bft) W22.5 260 0 min 0 lux 0 min 3,2 C -4,8 C
26.11.2011 04:45 3,3 C 99 % 1027 hPa 0,0 l/m 19,6 km/h (3 Bft) W22.5 265 0 min 0 lux 0 min 3,2 C -5,2 C
26.11.2011 05:00 3,5 C 99 % 1027 hPa 0,0 l/m 20,8 km/h (4 Bft) W45 270 0 min 0 lux 0 min 3,4 C -5,4 C
26.11.2011 05:15 3,5 C 99 % 1027 hPa 0,0 l/m 25,2 km/h (4 Bft) W22.5 265 0 min 0 lux 0 min 3,4 C -7,0 C
26.11.2011 05:30 3,6 C 99 % 1027 hPa 0,0 l/m 18,3 km/h (3 Bft) W22.5 270 0 min 0 lux 0 min 3,5 C -4,2 C
26.11.2011 05:45 3,6 C 99 % 1027 hPa 0,0 l/m 30,3 km/h (5 Bft) W22.5 260 0 min 0 lux 0 min 3,5 C -8,4 C
26.11.2011 06:00 3,6 C 99 % 1027 hPa 0,0 l/m 21,4 km/h (4 Bft) W-SW22.5 255 0 min 0 lux 0 min 3,5 C -5,5 C
26.11.2011 06:15 3,5 C 99 % 1027 hPa 0,0 l/m 15,8 km/h (3 Bft) W-SW22.5 255 0 min 0 lux 0 min 3,4 C -3,2 C
26.11.2011 06:30 3,5 C 99 % 1027 hPa 0,0 l/m 18,5 km/h (3 Bft) W-SW22.5 255 0 min 0 lux 0 min 3,4 C -4,5 C
26.11.2011 06:45 3,5 C 99 % 1028 hPa 0,0 l/m 21,6 km/h (4 Bft) W22.5 260 0 min 0 lux 0 min 3,4 C -5,8 C
26.11.2011 07:00 3,5 C 99 % 1028 hPa 0,0 l/m 14,5 km/h (3 Bft) W45 270 0 min 0 lux 0 min 3,4 C -2,5 C
26.11.2011 07:15 3,4 C 99 % 1028 hPa 0,0 l/m 14,8 km/h (3 Bft) W-SW22.5 245 0 min 0 lux 0 min 3,3 C -2,8 C
26.11.2011 07:30 3,3 C 99 % 1028 hPa 0,0 l/m 17,3 km/h (3 Bft) W22.5 260 0 min 0 lux 0 min 3,2 C -4,2 C
26.11.2011 07:45 3,3 C 99 % 1028 hPa 0,0 l/m 17,5 km/h (3 Bft) W-SW22.5 240 0 min 49 lux 0 min 3,2 C -4,3 C
26.11.2011 08:00 3,1 C 99 % 1028 hPa 0,0 l/m 18,6 km/h (3 Bft) W-SW22.5 250 0 min 160 lux 0 min 3,0 C -5,0 C
26.11.2011 08:15 3,1 C 99 % 1028 hPa 0,0 l/m 17,6 km/h (3 Bft) SW45 230 0 min 785 lux 0 min 3,0 C -4,6 C
26.11.2011 08:30 3,0 C 99 % 1028 hPa 0,0 l/m 14,5 km/h (3 Bft) S-SW45 205 0 min 1,45 klux 0 min 2,9 C -3,1 C
26.11.2011 08:45 3,1 C 99 % 1028 hPa 0,0 l/m 18,5 km/h (3 Bft) S-SW45 195 0 min 2,29 klux 0 min 3,0 C -5,0 C
26.11.2011 09:00 3,2 C 99 % 1028 hPa 0,0 l/m 15,8 km/h (3 Bft) S-SW22.5 205 0 min 2,37 klux 0 min 3,1 C -3,5 C
26.11.2011 09:16 3,5 C 99 % 1028 hPa 0,0 l/m 18,3 km/h (3 Bft) SW67.5 230 0 min 3,56 klux 0 min 3,4 C -4,4 C
26.11.2011 09:30 3,5 C 99 % 1028 hPa 0,0 l/m 17,8 km/h (3 Bft) SW45 235 0 min 3,46 klux 0 min 3,4 C -4,1 C
26.11.2011 09:45 3,7 C 99 % 1028 hPa 0,0 l/m 27,3 km/h (4 Bft) SW67.5 230 0 min 4,26 klux 0 min 3,6 C -7,4 C
26.11.2011 10:00 3,9 C 99 % 1028 hPa 0,0 l/m 23,6 km/h (4 Bft) SW45 220 0 min 6,45 klux 0 min 3,8 C -6,0 C
26.11.2011 10:15 4,1 C 99 % 1028 hPa 0,0 l/m 21,9 km/h (4 Bft) W-SW45 245 0 min 4,37 klux 0 min 4,0 C -5,1 C
26.11.2011 10:31 4,0 C 99 % 1028 hPa 0,0 l/m 30,0 km/h (5 Bft) SW45 220 0 min 6,49 klux 0 min 3,9 C -7,8 C
26.11.2011 10:46 4,3 C 99 % 1028 hPa 0,0 l/m 23,7 km/h (4 Bft) W-SW45 240 0 min 10,4 klux 0 min 4,2 C -5,5 C
26.11.2011 11:00 4,3 C 99 % 1028 hPa 0,0 l/m 24,6 km/h (4 Bft) SW45 220 0 min 5,95 klux 0 min 4,2 C -5,8 C
26.11.2011 11:15 4,4 C 98 % 1028 hPa 0,0 l/m 28,0 km/h (4 Bft) W-SW45 240 0 min 10,6 klux 0 min 4,1 C -6,7 C
26.11.2011 11:30 4,5 C 98 % 1028 hPa 0,0 l/m 22,4 km/h (4 Bft) W-SW22.5 245 0 min 7,44 klux 0 min 4,2 C -4,7 C
26.11.2011 11:45 4,5 C 98 % 1028 hPa 0,0 l/m 24,8 km/h (4 Bft) SW45 235 0 min 5,79 klux 0 min 4,2 C -5,6 C
26.11.2011 12:01 4,6 C 98 % 1028 hPa 0,0 l/m 30,3 km/h (5 Bft) W-SW45 245 0 min 6,06 klux 0 min 4,3 C -7,0 C
26.11.2011 12:16 4,6 C 98 % 1028 hPa 0,0 l/m 27,3 km/h (4 Bft) W-SW45 245 0 min 4,96 klux 0 min 4,3 C -6,2 C
26.11.2011 12:30 4,5 C 98 % 1027 hPa 0,0 l/m 24,0 km/h (4 Bft) SW45 225 0 min 5,32 klux 0 min 4,2 C -5,3 C
26.11.2011 12:45 4,6 C 98 % 1027 hPa 0,0 l/m 28,3 km/h (4 Bft) SW22.5 230 0 min 4,88 klux 0 min 4,3 C -6,5 C
26.11.2011 13:00 4,7 C 98 % 1027 hPa 0,0 l/m 29,1 km/h (5 Bft) W-SW45 250 0 min 5,12 klux 0 min 4,4 C -6,6 C
26.11.2011 13:15 4,7 C 98 % 1027 hPa 0,0 l/m 27,3 km/h (4 Bft) W-SW22.5 255 0 min 3,33 klux 0 min 4,4 C -6,1 C
26.11.2011 13:31 4,7 C 98 % 1027 hPa 0,0 l/m 29,1 km/h (5 Bft) W-SW45 245 0 min 5,89 klux 0 min 4,4 C -6,6 C
26.11.2011 13:46 4,9 C 98 % 1027 hPa 0,0 l/m 30,7 km/h (5 Bft) SW22.5 235 0 min 5,36 klux 0 min 4,6 C -6,7 C
26.11.2011 14:00 4,9 C 98 % 1027 hPa 0,0 l/m 22,8 km/h (4 Bft) W-SW22.5 240 0 min 4,52 klux 0 min 4,6 C -4,3 C
26.11.2011 14:15 4,8 C 97 % 1026 hPa 0,0 l/m 30,4 km/h (5 Bft) W-SW22.5 255 0 min 3,36 klux 0 min 4,4 C -6,8 C
26.11.2011 14:30 4,8 C 97 % 1026 hPa 0,0 l/m 35,5 km/h (5 Bft) W-SW45 240 0 min 2,88 klux 0 min 4,4 C -7,9 C
26.11.2011 14:45 4,9 C 98 % 1026 hPa 0,0 l/m 31,1 km/h (5 Bft) W-SW45 255 0 min 4,33 klux 0 min 4,6 C -6,8 C
26.11.2011 15:01 4,9 C 98 % 1026 hPa 0,0 l/m 27,0 km/h (4 Bft) W-SW45 245 0 min 3,03 klux 0 min 4,6 C -5,7 C
26.11.2011 15:16 4,9 C 98 % 1026 hPa 0,0 l/m 26,2 km/h (4 Bft) W-SW45 250 0 min 2,73 klux 0 min 4,6 C -5,5 C
26.11.2011 15:30 4,8 C 97 % 1026 hPa 0,0 l/m 29,5 km/h (5 Bft) W-SW22.5 250 0 min 1,90 klux 0 min 4,4 C -6,5 C
26.11.2011 15:45 4,6 C 97 % 1025 hPa 0,0 l/m 30,1 km/h (5 Bft) W-SW22.5 250 0 min 1,25 klux 0 min 4,2 C -7,0 C
26.11.2011 16:00 4,7 C 97 % 1025 hPa 0,0 l/m 34,5 km/h (5 Bft) W-SW45 245 0 min 1,36 klux 0 min 4,3 C -7,9 C
26.11.2011 16:15 4,5 C 97 % 1025 hPa 0,0 l/m 31,7 km/h (5 Bft) W-SW45 245 0 min 852 lux 0 min 4,1 C -7,5 C
26.11.2011 16:31 4,4 C 97 % 1025 hPa 0,0 l/m 33,5 km/h (5 Bft) W-SW45 250 0 min 612 lux 0 min 4,0 C -8,1 C
26.11.2011 16:46 4,4 C 97 % 1025 hPa 0,0 l/m 36,0 km/h (5 Bft) W-SW22.5 245 0 min 297 lux 0 min 4,0 C -8,6 C
26.11.2011 17:00 4,2 C 97 % 1025 hPa 0,0 l/m 35,0 km/h (5 Bft) W-SW45 255 0 min 113 lux 0 min 3,8 C -8,7 C
26.11.2011 17:15 4,1 C 97 % 1025 hPa 0,0 l/m 40,9 km/h (6 Bft) W-SW45 255 0 min 10 lux 0 min 3,7 C -10,0 C
26.11.2011 17:30 3,9 C 96 % 1025 hPa 0,0 l/m 44,6 km/h (6 Bft) W45 260 0 min 0 lux 0 min 3,3 C -10,9 C
26.11.2011 17:45 3,8 C 97 % 1025 hPa 0,0 l/m 44,0 km/h (6 Bft) W-SW22.5 255 0 min 0 lux 0 min 3,4 C -11,0 C
26.11.2011 18:01 3,7 C 97 % 1025 hPa 0,0 l/m 36,7 km/h (5 Bft) W-SW45 250 0 min 0 lux 0 min 3,3 C -9,8 C
26.11.2011 18:16 3,6 C 97 % 1025 hPa 0,0 l/m 28,6 km/h (4 Bft) W-SW45 240 0 min 0 lux 0 min 3,2 C -8,0 C
26.11.2011 18:30 3,5 C 97 % 1025 hPa 0,0 l/m 43,6 km/h (6 Bft) W22.5 260 0 min 0 lux 0 min 3,1 C -11,4 C
26.11.2011 18:45 3,4 C 97 % 1025 hPa 0,0 l/m 35,9 km/h (5 Bft) W-SW45 245 0 min 0 lux 0 min 3,0 C -10,1 C
26.11.2011 19:00 3,4 C 97 % 1025 hPa 0,0 l/m 45,4 km/h (6 Bft) W-SW22.5 245 0 min 0 lux 0 min 3,0 C -11,8 C
26.11.2011 19:15 3,3 C 97 % 1025 hPa 0,0 l/m 37,8 km/h (5 Bft) W-SW22.5 250 0 min 0 lux 0 min 2,9 C -10,6 C
26.11.2011 19:31 3,3 C 97 % 1025 hPa 0,0 l/m 42,7 km/h (6 Bft) W67.5 260 0 min 0 lux 0 min 2,9 C -11,5 C
26.11.2011 19:46 3,2 C 97 % 1024 hPa 0,0 l/m 39,8 km/h (6 Bft) W-SW45 255 0 min 0 lux 0 min 2,8 C -11,2 C
26.11.2011 20:00 3,1 C 97 % 1024 hPa 0,0 l/m 40,4 km/h (6 Bft) W-SW45 250 0 min 0 lux 0 min 2,7 C -11,4 C
26.11.2011 20:15 3,1 C 97 % 1024 hPa 0,0 l/m 37,7 km/h (5 Bft) W-SW45 250 0 min 0 lux 0 min 2,7 C -10,9 C
26.11.2011 20:30 2,9 C 97 % 1024 hPa 0,0 l/m 35,4 km/h (5 Bft) W-SW45 240 0 min 0 lux 0 min 2,5 C -10,7 C
26.11.2011 20:45 2,7 C 96 % 1024 hPa 0,0 l/m 37,5 km/h (5 Bft) W-SW22.5 255 0 min 0 lux 0 min 2,1 C -11,4 C
26.11.2011 21:00 2,6 C 96 % 1024 hPa 0,0 l/m 30,4 km/h (5 Bft) W-SW22.5 255 0 min 0 lux 0 min 2,0 C -9,9 C
26.11.2011 21:15 2,5 C 96 % 1024 hPa 0,0 l/m 31,7 km/h (5 Bft) W-SW45 255 0 min 0 lux 0 min 1,9 C -10,4 C
26.11.2011 21:31 2,5 C 97 % 1024 hPa 0,0 l/m 30,1 km/h (5 Bft) W-SW22.5 240 0 min 0 lux 0 min 2,1 C -9,9 C
26.11.2011 21:46 2,6 C 97 % 1024 hPa 0,0 l/m 24,4 km/h (4 Bft) W-SW45 240 0 min 0 lux 0 min 2,2 C -8,0 C
26.11.2011 22:00 2,7 C 97 % 1024 hPa 0,0 l/m 22,8 km/h (4 Bft) W-SW45 240 0 min 0 lux 0 min 2,3 C -7,3 C
26.11.2011 22:15 2,8 C 97 % 1024 hPa 0,0 l/m 24,3 km/h (4 Bft) W-SW45 250 0 min 0 lux 0 min 2,4 C -7,7 C
26.11.2011 22:30 2,9 C 97 % 1024 hPa 0,0 l/m 29,3 km/h (5 Bft) W-SW22.5 245 0 min 0 lux 0 min 2,5 C -9,1 C
26.11.2011 22:45 3,0 C 97 % 1024 hPa 0,0 l/m 23,9 km/h (4 Bft) W-SW67.5 250 0 min 0 lux 0 min 2,6 C -7,3 C
26.11.2011 23:01 3,0 C 97 % 1024 hPa 0,0 l/m 29,3 km/h (5 Bft) W-SW22.5 240 0 min 0 lux 0 min 2,6 C -9,0 C
26.11.2011 23:16 3,1 C 97 % 1023 hPa 0,0 l/m 33,0 km/h (5 Bft) W-SW45 240 0 min 0 lux 0 min 2,7 C -9,8 C
26.11.2011 23:30 3,0 C 97 % 1023 hPa 0,0 l/m 33,0 km/h (5 Bft) W-SW45 245 0 min 0 lux 0 min 2,6 C -10,0 C
26.11.2011 23:45 3,0 C 97 % 1023 hPa 0,0 l/m 32,6 km/h (5 Bft) SW45 225 0 min 0 lux 0 min 2,6 C -9,9 C
_ Min-Zeit 21:15 17:30 23:16 - 04:15 - - - - - 21:15 19:00
Minimum _ 2,5 C 96 % 1023 hPa - 13,6 km/h (3 Bft) - - - - - 1,9 C -11,8 C
_ Max-Zeit 13:46 00:01 06:45 00:01 19:00 - - 00:01 11:15 00:01 13:46 04:15
Maximum _ 4,9 C 99 % 1028 hPa 0,0 l/m 45,4 km/h
W-SW (6 Bft)
- - 0 min 10,6 klux 0 min 4,6 C -2,0 C
Durchschnitt _ 3,7 C 98 % 1026 hPa #0,0 l/m 26,4 km/h (4 Bft) W-SW - #0 min. 1,52 klux #0 min. 3,4 C -6,7 C